Fitchburg, MA

4:42 AM EDT on May 26, 2017 (GMT -0400)
Fitchburg Municipal

Weather History for KFIT - December, 2012

Change the Weather History Date:

Sunday, December 9, 2012

  Actual Average (KORH) Record (KORH)
Temperature  
Mean Temperature 37 °F -  
Max Temperature 46 °F 39 °F 66 °F (1966)
Min Temperature 28 °F 22 °F -13 °F (1902)
Degree Days  
Heating Degree Days 28    
Moisture  
Dew Point 32 °F    
Average Humidity 88    
Maximum Humidity 100    
Minimum Humidity 50    
Precipitation  
Precipitation 0.11 in - - ()
Sea Level Pressure  
Sea Level Pressure 30.12 in    
Wind  
Wind Speed 1 mph (NE)    
Max Wind Speed 7 mph    
Max Gust Speed -    
Visibility 5 miles    
Events Fog , Rain    
Averages and records for this station are not official NWS values.
T = Trace of Precipitation, MM = Missing Value Source: NWS Daily Summary

Daily Weather History Graph

Daily Weather History Graph

Search for Another Location

Airport or City:

Trip Planner

Search our weather history database for the weather conditions in past years. The results will help you decide how hot, cold, wet, or windy it might be!

Date:

Astronomy

Dec. 09, 2012 Rise Set
Actual Time 7:05 AM EST 4:13 PM EST
Civil Twilight 6:33 AM EST 4:45 PM EST
Nautical Twilight 5:58 AM EST 5:21 PM EST
Astronomical Twilight 5:23 AM EST 5:55 PM EST
Moon 2:30 AM EST (12/9) 1:22 PM EST (12/9)
Length of Visible Light 10h 12m
Length of Day
9h 08m
Waning Crescent, 19% of the Moon is Illuminated
Dec 9
Waning Crescent
Dec 13
New
Dec 20
First Quarter
Dec 28
Full
Jan 4
Last Quarter

Hourly Weather History & Observations

Time (EST) Temp. Windchill Dew Point Humidity Pressure Visibility Wind Dir Wind Speed Gust Speed Precip Events Conditions
12:52 AM 36.0 °F - 34.0 °F 93% 30.00 in 0.5 mi Calm Calm - N/A Fog Fog
12:59 AM 37.4 °F - 35.6 °F 93% 29.99 in 1.5 mi Calm Calm - N/A   Scattered Clouds
1:03 AM 37.4 °F - 35.6 °F 93% 29.99 in 3.0 mi Calm Calm - N/A   Scattered Clouds
1:07 AM 35.6 °F - 35.6 °F 100% 29.99 in 1.5 mi Calm Calm - N/A   Scattered Clouds
1:10 AM 33.8 °F - 33.8 °F 100% 29.99 in 0.8 mi Calm Calm - N/A   Mist
1:47 AM 35.6 °F - 33.8 °F 93% 30.01 in 1.2 mi Calm Calm - N/A   Scattered Clouds
1:52 AM 35.1 °F - 34.0 °F 96% 30.02 in 1.5 mi Calm Calm - N/A   Scattered Clouds
2:00 AM 33.8 °F - 33.8 °F 100% 30.01 in 0.8 mi Calm Calm - N/A   Mist
2:13 AM 32.0 °F 28.7 °F 30.2 °F 93% 30.02 in 2.0 mi NW 3.5 mph - N/A   Scattered Clouds
2:32 AM 33.8 °F - 33.8 °F 100% 30.03 in 4.0 mi Calm Calm - N/A   Partly Cloudy
2:38 AM 32.0 °F - 30.2 °F 93% 30.03 in 1.8 mi Calm Calm - N/A   Partly Cloudy
2:52 AM 32.0 °F - 30.9 °F 96% 30.05 in 1.0 mi Calm Calm - N/A   Clear
2:56 AM 33.8 °F - 32.0 °F 93% 30.04 in 2.0 mi Calm Calm - N/A   Clear
3:04 AM 32.0 °F - 32.0 °F 100% 30.04 in 3.0 mi Calm Calm - N/A   Clear
3:07 AM 32.0 °F - 30.2 °F 93% 30.05 in 1.8 mi Calm Calm - N/A   Clear
3:11 AM 32.0 °F - 30.2 °F 93% 30.05 in 0.8 mi Calm Calm - N/A   Clear
3:19 AM 32.0 °F - 30.2 °F 93% 30.05 in 0.8 mi Calm Calm - N/A   Mist
3:23 AM 33.8 °F - 32.0 °F 93% 30.05 in 1.2 mi Calm Calm - N/A   Partly Cloudy
3:27 AM 33.8 °F - 32.0 °F 93% 30.05 in 3.0 mi Calm Calm - N/A   Clear
3:38 AM 32.0 °F - 30.2 °F 93% 30.05 in 2.0 mi Calm Calm - N/A   Partly Cloudy
3:52 AM 32.0 °F - 30.9 °F 96% 30.07 in 4.0 mi Calm Calm - N/A   Clear
4:09 AM 32.0 °F - 30.2 °F 93% 30.07 in 2.5 mi Calm Calm - N/A   Partly Cloudy
4:18 AM 30.2 °F - 30.2 °F 100% 30.07 in 1.2 mi Calm Calm - N/A   Mostly Cloudy
4:35 AM 30.2 °F - 28.4 °F 93% 30.08 in 2.5 mi Calm Calm - N/A   Overcast
4:47 AM 30.2 °F - 28.4 °F 93% 30.08 in 1.0 mi Calm Calm - N/A   Mist
4:48 AM 30.9 °F - 30.0 °F 96% 30.10 in 1.0 mi Calm Calm - N/A   Mist
5:01 AM 32.0 °F - 30.2 °F 93% 30.09 in 1.8 mi Calm Calm - N/A   Scattered Clouds
5:08 AM 30.2 °F - 30.2 °F 100% 30.10 in 0.8 mi Calm Calm - N/A   Mist
5:18 AM 30.2 °F 26.7 °F 30.2 °F 100% 30.11 in 1.2 mi NNE 3.5 mph - N/A   Scattered Clouds
5:22 AM 30.2 °F - 30.2 °F 100% 30.11 in 3.0 mi Calm Calm - N/A   Partly Cloudy
5:52 AM 32.0 °F 28.7 °F 30.0 °F 92% 30.15 in 5.0 mi NNE 3.5 mph - N/A   Clear
6:52 AM 28.9 °F - 28.0 °F 96% 30.18 in 4.0 mi Calm Calm - N/A   Clear
7:52 AM 33.1 °F 28.7 °F 32.0 °F 96% 30.22 in 4.0 mi North 4.6 mph - N/A   Clear
8:52 AM 37.9 °F - 36.0 °F 93% 30.25 in 10.0 mi Calm Calm - N/A   Clear
9:52 AM 39.9 °F - 37.9 °F 93% 30.27 in 10.0 mi Calm Calm - N/A   Clear
10:52 AM 43.0 °F 38.8 °F 34.0 °F 71% 30.27 in 10.0 mi North 6.9 mph - N/A   Clear
11:52 AM 43.0 °F 41.3 °F 32.0 °F 65% 30.25 in 10.0 mi NNW 3.5 mph - N/A   Clear
1:52 PM 46.0 °F 43.9 °F 28.0 °F 50% 30.24 in 10.0 mi NE 4.6 mph - N/A   Clear
2:52 PM 46.0 °F 43.9 °F 28.9 °F 51% 30.26 in 10.0 mi NE 4.6 mph - N/A   Clear
3:52 PM 44.1 °F - 28.0 °F 53% 30.27 in 10.0 mi Calm Calm - N/A   Clear
4:52 PM 39.0 °F 36.8 °F 28.9 °F 67% 30.28 in 10.0 mi SE 3.5 mph - N/A   Clear
5:52 PM 39.0 °F - 30.9 °F 73% 30.30 in 10.0 mi Calm Calm - N/A   Mostly Cloudy
6:52 PM 37.9 °F - 32.0 °F 79% 30.30 in 10.0 mi Calm Calm - N/A   Overcast
7:52 PM 39.9 °F - 28.9 °F 65% 30.29 in 10.0 mi Calm Calm - N/A   Overcast
8:52 PM 39.9 °F - 30.0 °F 68% 30.26 in 10.0 mi Calm Calm - N/A   Overcast
9:40 PM 39.2 °F - 30.2 °F 70% 30.24 in 10.0 mi Calm Calm - 0.01 in Rain Light Rain
9:52 PM 39.0 °F - 32.0 °F 76% 30.24 in 10.0 mi Calm Calm - 0.01 in Rain Light Rain
10:52 PM 37.9 °F 35.5 °F 35.1 °F 89% 30.20 in 8.0 mi East 3.5 mph - 0.03 in Rain Light Rain
11:40 PM 37.4 °F 34.9 °F 35.6 °F 93% 30.17 in 7.0 mi East 3.5 mph - 0.06 in Rain Light Rain
11:49 PM 37.4 °F 33.8 °F 35.6 °F 93% 30.16 in 8.0 mi East 4.6 mph - 0.07 in Rain Light Rain
11:52 PM 37.9 °F 34.4 °F 36.0 °F 93% 30.17 in 8.0 mi East 4.6 mph - 0.07 in Rain Light Rain